Dauntless Aviation
Airports Asia Iran
OIAA
ABD

Abadan Airport

Abadan, IRAN

Airport Info
Suggest Updated Information for this Airport

Location

Latitude / Longitude: 30°22'15"N / 48°13'41"E
  30°22.266'N / 48°13.698'E
  30.3711 / 48.2283

Nearby radio navigation aids

ABD ABADAN VOR/DME. 145.2° 1.5nm from ABD to field.

Runway Information

Runway 14L/32R

Dimensions: 7434 x 115 ft.
Surface: ASP
 
Runway 14L
Runway 32R
Latitude: 30.371333 30.354683
Longitude: 48.228969 48.242617
Elevation: 18 ft. 18 ft.
Runway true heading: 143.7 323.7
 

Runway 14R/32L

Dimensions: 10184 x 148 ft.
Surface: ASP
 
Runway 14R
Runway 32L
Latitude: 30.37875 30.35595
Longitude: 48.2212 48.239892
Elevation: 18 ft. 18 ft.
Runway true heading: 143.7 323.7
 
Satellite photo at:
Airport distance calculator
From:
Weather Reports

METAR

OIAA

OIAA 230700Z 29006KT 8000 NSC 37/14 Q1007
ORMM
31.3nm W
ORMM 230700Z 30008KT CAVOK 36/11 Q1008 NOSIG

TAF

OIAA
TAF OIAA 230545Z 2306/2412 28010KT 7000 NSC TEMPO 2308/2314 32016KT BECMG 2323/2401 4000 HZ BECMG 2405/2407 7000 TEMPO 2407/2412 32018KT
ORMM
31.3nm W
TAF ORMM 230400Z 2306/2406 29010KT 8000 NSC
Safelog

 

Dauntless Aviation

© 2007-2019 Dauntless Aviation, all rights reserved
Information provided via PilotNav comes from a variety of official and unofficial data sources. As errors are possible, do not use PilotNav for primary flight planning purposes. Verify any information that you receive via PilotNav with current and canonical charts and other official documents. The material in this database is subject to database copyrights held by Dauntless Aviation and may not be copied without the express permission of Dauntless Aviation - licenses for use of part of all of this data are available for purchase; enquire via the Dauntless Aviation helpdesk. A number of mechanisms and markers exist in the database to protect against and identify infringement / copyright. Automated queries against this website are stictly prohibited, and all activity is logged and analyzed.